Location: Agadir Mansour Mhndou
(31.2424°N, 8.7730°W)
Time: 19:49:48
(UTC+00:00)

Okean-O - Pass Details

Date: 16 October 2021
Orbit: 639 x 640 km, 98.2° (Epoch: 08 December)

Event Time Altitude Azimuth Distance (km) Brightness Sun altitude
Exits shadow 19:45:25 37° 20° (NNE) 1,002 3.4 -22.8°
Drops below altitude 10° 19:48:17 10° 358° (N) 2,035 5.3 -23.5°
Sets 19:50:32 0° 354° (N) 2,947 6.2 -23.9°
